Regional Weather Roundup
Issued by NWS Sioux Falls, SD

Home | Current Version | Previous Version | Graphics & Text | Print | Product List | Glossary Off
Versions: 1 2 3 4 5 6 7 8 9 10 11 12 13 14 15 16 17 18 19 20 21 22 23 24 25 26 27 28 29 30 31 32 33 34 35 36 37 38 39 40 41 42 43 44 45 46 47 48 49 50

210
ASUS43 KFSD 250902
RWRFSD

WEATHER ROUNDUP FOR SE SOUTH DAKOTA/SW MINNESOTA/NW IOWA
NATIONAL WEATHER SERVICE SIOUX FALLS SD
400 AM CDT MON JUL 25 2016

NOTE: "FAIR" INDICATES FEW OR NO CLOUDS BELOW 12,000 FEET WITH NO
SIGNIFICANT WEATHER AND OR OBSTRUCTIONS TO VISIBILITY.


SDZ038>040-050-052>070-251000-
SOUTHEAST SOUTH DAKOTA

CITY           SKY/WX    TMP DP  RH WIND       PRES   REMARKS
BROOKINGS      CLEAR     62  59  90 CALM      30.08F
CHAMBERLAIN    CLEAR     62  59  90 CALM      30.07F
HURON          CLEAR     65  58  78 S5        30.05F
MADISON        FAIR      59  59 100 NW5       30.09F
MITCHELL       CLEAR     67  60  78 S5        30.07F
SIOUX FALLS    CLEAR     63  58  83 CALM      30.07F
WINNER         FAIR      68  54  60 SW7       30.09F
YANKTON        CLEAR     61  55  82 N5        30.06F
$$

MNZ071-072-080-081-089-090-097-098-251000-
SOUTHWEST MINNESOTA

CITY           SKY/WX    TMP DP  RH WIND       PRES   REMARKS
FAIRMONT       CLEAR     63  55  77 W5        30.04S
JACKSON        CLEAR     63  59  88 CALM      30.07F
LUVERNE        CLEAR     61  55  82 CALM      30.08F
MARSHALL       CLEAR     63  59  87 W7        30.05F
MONTEVIDEO     CLEAR     63  59  88 NW5       30.06S
REDWOOD FALLS  PTCLDY    65  60  84 W9        30.03F
TRACY          CLEAR     66  61  84 W5        30.06F
WINDOM         CLEAR     61  59  94 CALM      30.06F
WORTHINGTON    CLEAR     62  59  90 W6        30.08S
$$

IAZ001>003-012>014-020>022-031-032-NEZ013-014-SDZ071-251000-
NORTHWEST IOWA

CITY           SKY/WX    TMP DP  RH WIND       PRES   REMARKS
CHEROKEE       CLEAR     63  62  96 CALM      30.07S
ESTHERVILLE    CLEAR     61  60  97 W6        30.07R
LE MARS        CLEAR     61  61 100 CALM      30.07F
SHELDON        CLEAR     59  59 100 N5        30.06F
SIOUX CITY     CLEAR     64  62  93 NW3       30.06S
SPENCER        CLEAR     59  58  96 W6        30.07F
STORM LAKE     CLEAR     64  61  88 NW6       30.08S
$$

ABBREVIATIONS USED IN REMARKS
   TC - TEMPERATURE IN CELSIUS
  WCI - WIND CHILL INDEX
   HX - HEAT INDEX
  VSB - VISIBILITY





USA.gov is the U.S. government's official web portal to all federal, state and local government web resources and services.